Pittsburgh Allegheny Co., PA

4:15 PM EDT on May 22, 2018 (GMT -0400)
Allegheny County

Weather History for KAGC - January, 2012

Change the Weather History Date:

Thursday, January 12, 2012

  Actual Average Record
Temperature  
Mean Temperature 42 °F -  
Max Temperature 46 °F 40 °F 64 °F (2017)
Min Temperature 34 °F 23 °F 4 °F (1988)
Degree Days  
Heating Degree Days 22    
Moisture  
Dew Point 40 °F    
Average Humidity 87    
Maximum Humidity 93    
Minimum Humidity 76    
Precipitation  
Precipitation 0.34 in - - ()
Sea Level Pressure  
Sea Level Pressure 29.41 in    
Wind  
Wind Speed 8 mph (South)    
Max Wind Speed 24 mph    
Max Gust Speed 31 mph    
Visibility 7 miles    
Events Rain , Snow    
Averages and records for this station are not official NWS values.
T = Trace of Precipitation, MM = Missing Value Source: NWS Daily Summary

Daily Weather History Graph

Daily Weather History Graph

Search for Another Location

Airport or City:

Astronomy

Jan. 12, 2012 Rise Set
Actual Time 7:41 AM EST 5:14 PM EST
Civil Twilight 7:11 AM EST 5:44 PM EST
Nautical Twilight 6:37 AM EST 6:18 PM EST
Astronomical Twilight 6:05 AM EST 6:50 PM EST
Moon 9:18 PM EST (1/12) 9:24 AM EST (1/12)
Length of Visible Light 10h 32m
Length of Day
9h 32m
Waning Gibbous, 87% of the Moon is Illuminated
Jan 12
Waning Gibbous
Jan 16
Last Quarter
Jan 23
New
Jan 30
First Quarter
Feb 7
Full

Hourly Weather History & Observations

Time (EST) Temp. Windchill Dew Point Humidity Pressure Visibility Wind Dir Wind Speed Gust Speed Precip Events Conditions
12:53 AM 42.1 °F 40.2 °F 37.9 °F 85% 29.47 in 5.0 mi East 3.5 mph - 0.04 in Rain Rain
1:53 AM 42.1 °F 39.2 °F 39.0 °F 89% 29.47 in 10.0 mi ESE 4.6 mph - 0.02 in Rain Light Rain
2:17 AM 41.0 °F 37.1 °F 39.2 °F 93% 29.44 in 2.5 mi SE 5.8 mph - 0.01 in   Overcast
2:27 AM 41.0 °F 37.1 °F 39.2 °F 93% 29.44 in 1.2 mi SE 5.8 mph - 0.01 in   Overcast
2:35 AM 42.8 °F 38.6 °F 39.2 °F 87% 29.44 in 3.0 mi SE 6.9 mph - 0.01 in   Overcast
2:53 AM 42.1 °F 37.7 °F 39.0 °F 89% 29.47 in 7.0 mi SE 6.9 mph - 0.01 in Rain Light Rain
3:41 AM 42.8 °F 38.6 °F 39.2 °F 87% 29.43 in 10.0 mi ESE 6.9 mph - 0.01 in Rain Light Rain
3:53 AM 42.1 °F 37.1 °F 39.0 °F 89% 29.46 in 10.0 mi ESE 8.1 mph - 0.01 in Rain Light Rain
4:53 AM 42.8 °F 39.3 °F 39.2 °F 87% 29.42 in 8.0 mi SE 5.8 mph - N/A Rain Light Rain
5:30 AM 42.8 °F 39.3 °F 39.2 °F 87% 29.41 in 6.0 mi SE 5.8 mph - 0.05 in Rain Light Rain
5:53 AM 42.1 °F 39.2 °F 39.0 °F 89% 29.44 in 5.0 mi SE 4.6 mph - 0.06 in Rain Light Rain
6:05 AM 42.8 °F 38.0 °F 39.2 °F 87% 29.41 in 7.0 mi SSE 8.1 mph - 0.00 in   Overcast
6:34 AM 42.8 °F 37.5 °F 39.2 °F 87% 29.41 in 3.0 mi SSE 9.2 mph - 0.01 in Rain Light Rain
6:41 AM 42.8 °F 37.5 °F 39.2 °F 87% 29.41 in 2.0 mi SSE 9.2 mph - 0.01 in Rain Light Rain
6:48 AM 42.8 °F 37.5 °F 39.2 °F 87% 29.41 in 1.0 mi SSE 9.2 mph - 0.01 in Rain Light Rain
6:51 AM 42.8 °F 38.0 °F 39.2 °F 87% 29.41 in 0.8 mi SSE 8.1 mph - 0.01 in Rain Light Rain
6:53 AM 42.8 °F 38.0 °F 39.2 °F 87% 29.41 in 0.8 mi SSE 8.1 mph - N/A Rain Light Rain
7:38 AM 42.8 °F 38.0 °F 41.0 °F 93% 29.41 in 0.8 mi South 8.1 mph - 0.02 in Rain Light Rain
7:53 AM 43.0 °F 38.2 °F 41.0 °F 93% 29.44 in 1.5 mi South 8.1 mph - 0.02 in   Overcast
8:02 AM 42.8 °F 38.0 °F 41.0 °F 93% 29.41 in 1.5 mi South 8.1 mph - N/A   Overcast
8:24 AM 44.6 °F 39.7 °F 41.0 °F 87% 29.41 in 7.0 mi SSW 9.2 mph - N/A   Overcast
8:53 AM 44.1 °F 39.5 °F 42.1 °F 93% 29.45 in 10.0 mi South 8.1 mph - N/A   Overcast
9:53 AM 44.6 °F 37.4 °F 41.0 °F 87% 29.44 in 10.0 mi SW 16.1 mph 24.2 mph N/A   Overcast
10:24 AM 44.6 °F 37.4 °F 41.0 °F 87% 29.45 in 4.0 mi SW 16.1 mph 24.2 mph 0.00 in Rain Light Rain
10:53 AM 45.0 °F 39.7 °F 39.9 °F 82% 29.47 in 8.0 mi SSW 10.4 mph - 0.00 in   Overcast
11:53 AM 45.0 °F 38.9 °F 41.0 °F 86% 29.45 in 10.0 mi SSW 12.7 mph - 0.00 in   Overcast
12:53 PM 44.1 °F 37.7 °F 39.9 °F 85% 29.44 in 10.0 mi SW 12.7 mph 21.9 mph N/A   Overcast
1:53 PM 44.6 °F 39.2 °F 39.2 °F 81% 29.40 in 10.0 mi SSW 10.4 mph - N/A   Overcast
2:53 PM 45.0 °F 39.3 °F 39.9 °F 82% 29.43 in 10.0 mi SSW 11.5 mph - N/A   Overcast
3:33 PM 46.4 °F 42.4 °F 39.2 °F 76% 29.40 in 10.0 mi SSW 8.1 mph - N/A   Overcast
3:48 PM 46.4 °F 41.1 °F 39.2 °F 76% 29.40 in 10.0 mi South 11.5 mph - N/A   Overcast
3:53 PM 46.0 °F 41.0 °F 39.9 °F 79% 29.43 in 10.0 mi SSW 10.4 mph - N/A   Overcast
4:53 PM 45.0 °F 40.1 °F 41.0 °F 86% 29.44 in 10.0 mi SSW 9.2 mph - 0.00 in Rain Light Rain
5:25 PM 44.6 °F 39.2 °F 41.0 °F 87% 29.41 in 10.0 mi SSW 10.4 mph - 0.00 in Rain Light Rain
5:53 PM 44.1 °F 39.0 °F 41.0 °F 89% 29.44 in 10.0 mi South 9.2 mph - 0.01 in   Overcast
5:58 PM 44.6 °F 41.4 °F 41.0 °F 87% 29.41 in 10.0 mi South 5.8 mph - 0.00 in Rain Light Rain
6:23 PM 44.6 °F 41.4 °F 41.0 °F 87% 29.40 in 10.0 mi South 5.8 mph - 0.00 in   Overcast
6:53 PM 44.1 °F 40.1 °F 41.0 °F 89% 29.42 in 9.0 mi South 6.9 mph - 0.00 in Rain Light Rain
7:00 PM 44.6 °F 40.7 °F 41.0 °F 87% 29.39 in 8.0 mi South 6.9 mph - N/A Rain Light Rain
7:07 PM 44.6 °F 41.4 °F 41.0 °F 87% 29.39 in 10.0 mi SSE 5.8 mph - 0.00 in   Overcast
7:53 PM 44.1 °F 39.5 °F 41.0 °F 89% 29.40 in 9.0 mi SSE 8.1 mph - 0.00 in   Mostly Cloudy
8:24 PM 42.8 °F 41.1 °F 41.0 °F 93% 29.35 in 8.0 mi SSE 3.5 mph - N/A   Overcast
8:53 PM 42.8 °F 40.1 °F 41.0 °F 93% 29.33 in 7.0 mi SE 4.6 mph - N/A   Overcast
9:23 PM 42.8 °F 40.1 °F 41.0 °F 93% 29.32 in 4.0 mi SE 4.6 mph - N/A   Overcast
9:45 PM 42.8 °F 40.1 °F 41.0 °F 93% 29.32 in 2.5 mi South 4.6 mph - 0.00 in Rain Light Rain
9:53 PM 43.0 °F 37.7 °F 41.0 °F 93% 29.34 in 5.0 mi South 9.2 mph - 0.02 in Rain Rain
10:04 PM 44.6 °F 38.8 °F 39.2 °F 81% 29.31 in 4.0 mi SW 11.5 mph 20.7 mph 0.03 in Rain Rain
10:08 PM 44.6 °F 38.1 °F 41.0 °F 87% 29.31 in 3.0 mi WSW 13.8 mph 23.0 mph 0.05 in Rain Rain
10:39 PM 41.0 °F 31.6 °F 35.6 °F 81% 29.32 in 10.0 mi WSW 20.7 mph - 0.12 in Rain Light Rain
10:53 PM 39.0 °F 28.3 °F 35.1 °F 86% 29.35 in 10.0 mi WSW 24.2 mph 29.9 mph 0.13 in Rain Light Rain
11:53 PM 34.0 °F 22.7 °F 28.9 °F 82% 29.43 in 5.0 mi WSW 19.6 mph 31.1 mph 0.02 in Snow Light Snow